Regional Weather Roundup
Issued by NWS Portland, ME

Current Version | Previous Version | Text Only | Print | Product List | Glossary Off
Versions: 1 2 3 4 5 6 7 8 9 10 11 12 13 14 15 16 17 18 19 20 21 22 23 24 25 26 27 28 29 30 31 32 33 34 35 36 37 38 39 40 41 42 43 44 45 46 47 48 49 50
000 ASUS41 KGYX 231710 RWRGYX WEATHER ROUNDUP FOR MAINE AND NEW HAMPSHIRE NATIONAL WEATHER SERVICE GRAY ME 100 PM EDT WED MAY 23 2018 MEZ002-005-006-010-012-015-018-020-021-024-026-027-029-231800- MAINE CITY SKY/WX TMP DP RH WIND PRES REMARKS PORTLAND FAIR 75 56 51 NW5 29.82F SANFORD FAIR 77 53 43 W10G16 29.84F BAR HARBOR FAIR 71 53 52 VRB6 29.79F WISCASSET FAIR 75 54 47 VRB6 29.81F ROCKLAND FAIR 62 54 74 S13 29.81F FRYEBURG FAIR 79 47 32 NW14G24 29.82F LEWISTONAUBURN FAIR 75 52 44 SW14G20 29.81F AUGUSTA FAIR 75 52 44 W7 29.80F WATERVILLE FAIR 74 53 48 W6 29.76F BANGOR PTSUNNY 72 53 51 VRB5 29.78F GREENVILLE N/A 52 45 77 N13G25 29.83R MILLINOCKET LGT RAIN 57 47 69 N10 29.87R HOULTON CLOUDY 51 47 86 N16 29.84F PRESQUE ISLE CLOUDY 50 46 87 NE3 29.86F FRENCHVILLE CLOUDY 46 41 82 N14 29.87R CARIBOU PTSUNNY 50 46 86 NE8 29.84F $$ NHZ002-005-008-009-011-012-014-231800- NEW HAMPSHIRE CITY SKY/WX TMP DP RH WIND PRES REMARKS PORTSMOUTH MOSUNNY 76 55 47 W7 29.83F ROCHESTER FAIR 77 53 43 NW9G21 29.83F NASHUA FAIR 78 54 43 N6 29.86F MANCHESTER FAIR 80 49 33 NW9G17 29.85F CONCORD FAIR 79 51 37 NW10 29.86F LACONIA FAIR 75 49 39 W15G23 29.86F PLYMOUTH FAIR 74 52 44 W7G18 29.86F BERLIN FAIR 74 52 46 VRB7G17 29.84F WHITEFIELD FAIR 72 55 55 W9 29.86F JAFFREY FAIR 78 50 37 NW6 29.90F KEENE FAIR 81 51 35 N8 29.89F LEBANON FAIR 78 52 40 W9 29.87F MT WASHINGTON MOSUNNY 45 43 93 NW45G74 N/A $$ VTZ005-007-008-231800- VERMONT CITY SKY/WX TMP DP RH WIND PRES REMARKS ST JOHNSBURY N/A 74 51 44 MISG 29.85S MONTPELIER FAIR 72 53 51 N12 29.93S BURLINGTON FAIR 75 56 51 VRB6 29.89S $$ MAZ007-012-024-CTZ003-RIZ002-NYZ038-NYZ072-231800- SOUTHERN NEW ENGLAND AND NY CITY SKY/WX TMP DP RH WIND PRES REMARKS BOSTON FAIR 70 57 63 SE13 29.86F WORCESTER FAIR 74 50 42 N13G22 29.90S NANTUCKET FAIR 67 61 81 W9 29.89S PROVIDENCE FAIR 77 57 50 VRB6 29.88F HARTFORD FAIR 79 56 45 E5 29.89F ALBANY FAIR 76 56 49 W12 29.95F NEW YORK CITY PTSUNNY 72 59 63 N10 29.94S $$ ANZ081-ANZ082-ANZ150-NHZ014-MEZ023>029-231800- COASTAL MARINE OBSERVATIONS STATION/POSITION TIME TEMP WIND PRES WAVE AIR SEA DIR/SP/G HT/PER (UTC) (F) (DEG/KT/KT) (MB) (FT/S) MOUNT DESERT ROC 1700 51 200/ 10/ 10 1009.6F MATINICUS ROCK 1700 52 210/ 11/ 11 1009.3F ISLE OF SHOALS 1700 64 180/ 9/ 10 1010.5F JEFFREYS LEDGE 1636 55 N/A 2/ 8 CASHES LEDGE BUO 1650 56 52 1010.8F 2/ 8 $$ .............KEY.............. WCI - WIND CHILL TC - TEMPERATURE IN CELSIUS VSB - VISIBILITY IN MILES HX - HEAT INDEX FAIR- INDICATES FEW OR NO CLOUDS BELOW 12,000 FT, WITH NO SIGNIFICANT WEATHER AND/OR OBSTRUCTIONS TO VISIBILITY.

USA.gov is the U.S. government's official web portal to all federal, state and local government web resources and services.